Regional Weather Roundup
Issued by NWS San Diego, CA

Home | Current Version | Previous Version | Text Only | Print | Product List | Glossary On
Versions: 1 2 3 4 5 6 7 8 9 10 11 12 13 14 15 16 17 18 19 20 21 22 23 24 25 26 27 28 29 30 31 32 33 34 35 36 37 38 39 40 41 42 43 44 45 46 47 48 49 50
000
ASUS46 KSGX 310010
RWRSGX

SAN DIEGO HOURLY WEATHER ROUNDUP
NATIONAL WEATHER SERVICE SAN DIEGO CA
500 PM PDT SAT AUG 30 2014

NOTE: "FAIR" INDICATES FEW OR NO CLOUDS BELOW 12,000 FEET WITH NO
SIGNIFICANT WEATHER AND/OR OBSTRUCTIONS TO VISIBILITY.

CAZ042-043-060-061-PZZ750-775-310100-

GREATER SAN DIEGO AREA

CITY           SKY/WX    TMP DP  RH WIND       PRES   REMARKS
LINDBERGH FLD  MOSUNNY   78  64  61 NW8       29.77F
POINT LOMA       N/A     75  64  68 W15         N/A
NATIONAL CITY    N/A     79  68  68 SW9       29.77S
CHULA VISTA      N/A     78  68  73 W8        29.70F
IMPERIAL BEACH SUNNY     75  65  70 W9        29.77F
BROWN FIELD    SUNNY     79  64  60 NW6       29.77F
MIRAMAR MCAS   MOSUNNY   81  61  50 NW7       29.77S
MONTGOMERY FLD SUNNY     83  64  52 W6        29.77S

$$

NORTH SAN DIEGO COUNTY

CITY           SKY/WX    TMP DP  RH WIND       PRES   REMARKS
CAMP PENDLETON SUNNY     79  64  60 SW10      29.75S
OCEANSIDE AP   SUNNY     77  65  66 W8        29.75F
OCEANSIDE HBR    N/A     73  68  84 W10       29.79S
VISTA            N/A     82  67  59 SW5       29.73S
CARLSBAD       SUNNY     76  64  66 W7        29.76S
DEL MAR          N/A     76  68  76 CALM      29.79F
LA JOLLA SCRIP   N/A     74  68  82 W3        29.74
FALLBROOK        N/A     83  64  51 S6        29.75S
ESCONDIDO        N/A     87  62  43 W7        29.76S
SAN MARCOS       N/A     81  66  58 NW3       29.74S
POWAY            N/A     90  63  40 SW3       29.75F

$$

EAST SAN DIEGO COUNTY

CITY           SKY/WX    TMP DP  RH WIND       PRES   REMARKS
RAMONA         SUNNY     93  49  22 W9        29.79F
SANTEE LAKES     N/A     89  64  42 CALM      29.75F
LA MESA          N/A     86  68  54 W3        29.69F
JAMUL            N/A     89  64  43 W2        29.74S
DESCANSO N       N/A     92  39  16 W5        29.63F
MT. LAGUNA OBS   N/A     79  39  23 W9        29.69S
CAMPO            N/A     94  42  16 SW18      29.82F

$$

ORANGE COUNTY AND THE LOS ANGELES BASIN

CITY           SKY/WX    TMP DP  RH WIND       PRES   REMARKS
JOHN WAYNE AP  MOSUNNY   83  62  49 SW8       29.74F
LAGUNA BEACH     N/A     79  69  72 S2        29.71F
LAKE FOREST FR   N/A     90  58  33 CALM      29.64F
SANTA ANA        N/A     88  67  49 CALM      29.70F
HUNTINGTON BCH   N/A     78  69  76 W8        29.77F
LOS ALAMITOS   FAIR      80  66  61 S10       29.74F
FULLERTON      SUNNY     87  63  44 S6        29.73F
LONG BEACH     SUNNY     86  62  44 W7        29.74F
L.A. AP        MOSUNNY   75  65  70 W14       29.76F
L.A. DOWNTOWN  SUNNY     83  63  50 W8        29.74F

$$

THE INLAND EMPIRE

CITY           SKY/WX    TMP DP  RH WIND       PRES   REMARKS
CORONA         SUNNY     92  56  29 W13       29.74F
CHINO          MOSUNNY   94  53  25 W15       29.74F
ONTARIO        MOSUNNY   97  47  18 W14       29.75F
SAN BERNARDINO SUNNY     99  41  13 W8        29.75F
RIVERSIDE AP   SUNNY     95  52  23 W14       29.74F
RIV CYN CREST    N/A     97  61  30 W3        29.72F HX  97
MORENO VALLEY    N/A     99  53  21 W6        28.96F HX  97
MARCH ARB      SUNNY     97  53  22 NW12      29.78F
HORSETHIEF CYN   N/A     96  49  20 NW9       29.74F
PERRIS           N/A     99  48  17 W3        29.72F HX  95
MENIFEE          N/A    100  47  16 SW7       29.80F HX  97
HEMET EAST       N/A    100  26   7 SW3       29.71F
FRENCH VALLEY  FAIR      95  46  18 SW13      29.78S
TEMECULA         N/A     95  45  17 SW9       29.70S

$$

SAN BERNARDINO AND RIVERSIDE COUNTY MOUNTAINS

CITY           SKY/WX    TMP DP  RH WIND       PRES   REMARKS
BIG BEAR AP    SUNNY     79  32  18 SW7       30.17F
ANGELUS OAKS     N/A     84  40  20 SW1       29.66F
PINE COVE        N/A     83  25  12 W2        29.66F

$$

SOUTHERN DESERT INCLUDING THE COACHELLA VALLEY

CITY           SKY/WX    TMP DP  RH WIND       PRES   REMARKS
PALM SPRINGS   SUNNY    111  34   7 E9        29.64F HX 104
THOUSAND PALMS   N/A    109  38   9 SE7       29.58F HX 102
PALM DESERT      N/A    111  48  12 SE1       31.73R HX 107
THERMAL        SUNNY    110  43  10 SE8       29.58F HX 104
BLYTHE         MOSUNNY  110  40   9 S16       29.63F HX 104
IMPERIAL AP    SUNNY    112  46  11 E14       29.58F HX 107
YUMA AZ        MOSUNNY  111  40   9 S10       29.63F HX 105
MEXICALI       SUNNY    109  39   9 SE9       29.62  HX 103

$$

UPPER DESERT

CITY           SKY/WX    TMP DP  RH WIND       PRES   REMARKS
VICTORVILLE AP SUNNY    100  34  10 W18G26    29.83F
HESPERIA         N/A     99  35  11 W6        29.79F
APPLE VALLEY     N/A    100  33   9 W2G20     29.90F
PALMDALE       SUNNY     97  31   9 NW25      29.84F
LANCASTER      SUNNY     93  32  11 W29G35    29.83F
EDWARDS AFB    PTSUNNY   95  32  11 W28G36    29.78S
DAGGETT        SUNNY    107  29   6 SW21G29   29.72F HX  99
29 PALMS N     SUNNY    105  21   5 SW13      29.81F HX  97
NEEDLES        SUNNY    110  30   6 W6G17     29.64F HX 102

$$

REGIONAL REPORTS

CITY           SKY/WX    TMP DP  RH WIND       PRES   REMARKS
SANTA BARBARA  SUNNY     73  63  70 SE6       29.74F
SANDBERG       SUNNY     85  32  15 N16G22    30.06F
MT. WILSON       N/A     86  50  28 MISG        N/A
LAS VEGAS NV   PTSUNNY  104  26   6 SW18G28   29.67F HX  96
PHOENIX AZ     MOSUNNY  108  38   9 W9        29.70S HX 102
TIJUANA        SUNNY     81  61  50 W13       29.79
ENSENADA NW      N/A     72  32  23 W10       29.74F

$$

OFFSHORE ISLANDS

CITY           SKY/WX    TMP DP  RH WIND       PRES   REMARKS
CATALINA ARPT  SUNNY     82  55  39 SW7       29.83F
SAN NICOLAS IS SUNNY    N/A N/A N/A W15       29.78F

$$

MARINE AND OFFSHORE BUOY REPORTS

STATION/POSITION SKY/WX   TEMP    WIND        PRES    SWELL
                          AIR SEA DIR/SP/G            HT/PER/DIR
                          (F)     (DEG/KT/KT) (MB)    (FT/S/D)
TANNER BANKS               68 69  310/ 16/ 17 1008.7F   3/250/ 8
S CLEMENTE BASIN           69 72  280/  8/ 10 1007.9F   3/240/16
SAN NICOLAS IS.               66                N/A     2/230/11
SO. S. ROSA ISLA           67 67  330/ 19/ 23 1007.7F   3/ 8
W. S. BARBARA CH           65 61  320/ 23/ 27 1007.5F   3/270/10
M. S. BARBARA CH           67 70  220/  2/  2 1008.2F
S. MONICA BASIN            69 72  260/  8/ 10 1007.4F   3/230/15
S PEDRO CHANNEL               73                N/A     2/170/15
DANA POINT                    74                N/A     2/190/13
CMP PENDLETON NS              75                N/A     2/220/14
OCEANSIDE OFFSHR              75                N/A     2/210/15
TORREY PINES OTR              75                N/A     2/210/13
LA JOLLA 1                 74 73  320/  4/  5 1008.1F
MISSION BAY BUOY              71                N/A     2/200/15
SAN DIEGO BAY                 75              1008.4S
POINT LOMA SOUTH              75                N/A     2/190/17

$$



USA.gov is the U.S. government's official web portal to all federal, state and local government web resources and services.